Find Starlink 34827

NORAD ID: 65038 Int'l Des: 2025-161 Owner: SPXS Country: US Constellation: starlink operational
LEOCIRCULAR

Live Position

Loading 3D Globe...

About Starlink 34827

Description loading...

Upcoming Passes

Passes for default location (London). Set your location on the main map for personalized predictions.

Altitude History

Loading altitude history...

Two-Line Element Set

1 65038U 25161Z 26106.43850539 .00008227 00000-0 28947-3 0 9991
2 65038 53.1591 118.5537 0001034 84.1651 275.9468 15.30212573 40016
Epoch: Apr 16, 2026 • Age: 14 hours

Current Status

Altitude 480.6 km
Velocity 7.63 km/s
Sub-Earth Point 51.54°N, 34.26°W
Launch Date Jul 30, 2025
Age 0.7 years
Type internet

Technical Details

Classification Payload
Mass 575.00 kg
Dry Mass 530.00 kg
Total Mass 575.00 kg
Length 0.30 m
Diameter 4.10 m
Span 29.00 m
Shape Box + pan
Manufacturer SPXS
Bus Type Starlink V2MO
Phase Status In Orbit
Owner/State SPXS/US

Most Searched